Showing default

POLYTECH UNIVERSE-5, 61745

Orbit data source: Space-Track

POLYTECH UNIVERSE-5, 61745 is a payload satellite owned by Polytech (CIS) in SSO that was launched on Mon, 04 Nov 2024 UTC via a SOYUZ-2-1B launch vehicle from the Vostochny Cosmodrome (VOSTO). Payload-class satellites include a variety of spacecraft equipped with specific instruments for various scientific and technological missions. These include communications satellites like Starlink; space stations such as the ISS; scientific satellites like the Hubble; Earth observation satellites from companies like Planet Labs, Umbra, and HawkEye 360; GPS; miniature CubeSats for education and research; and military/defense satellites.

Loading next visibility...
Identifier
61745, 2024-199L
Orbit
SSO
Country
Flag of CISCIS
Related business
Manufacturer
STTs
Mission
Operational Amateur Science
Bus & Motor
CUBESAT 3U, Unknown motor
Mass
5.07 kg wet, 5.07 kg dry
Launch date (UTC)
2024-11-04 (1 year ago)
Launch vehicle
SOYUZ-2-1B
Launch site
Vostochny Cosmodrome (VOSTO)
Object type
Payload
Rocket body
Debris
Shape & HBR
Box, 0.1 m
Radar Cross Section
0.035 m², Medium (>0.1 m² and < 1m²)

Expand to show TLE details & history
Last TLE update: 8 hours ago

TLE from 8 hours ago
0 POLYTECH UNIVERSE-5
1 61745U 24199L   25295.16238926  .00033744  00000-0  81528-3 0  9996
2 61745  97.3296 164.0890 0010776  69.5339 290.7064 15.41037866100791
Epoch: 2025-10-22T03:53Z
TLE epoch observation values (Epoch: 2025-10-22T03:53:50.432Z)
Latitude
0.00004°
Longitude
74.78891°
Altitude
443.573 km
Speed
7.647 km/s
True Right ascension
10h 56m 21s
True Declination
0° 00' 00"
Sunlit
Object was in daylight at epoch
Visualization orbit readout
Latitude
Unknown
Longitude
Unknown
Altitude
Unknown
Speed
Unknown
Apparent Right ascension
Unknown
Apparent Declination
Unknown
Sunlit
N/A
Visualization observer readout
Local Sidereal Time
07:18:17
Azimuth
Unknown
Elevation
Unknown
Doppler factor
Unknown
Orbital elements
Apogee altitude
447.327 km
Perigee altitude
432.632 km
Semi-major axis
6,818.117 km
Eccentricity
0.00108
Inclination
97.3296°
RAAN
164.089°
Arg. of periapsis
69.5339°
True anomaly
290.59084°
Mean anomaly
290.7064°
Eccentric anomaly
290.64862°
Mean motion
3.8552 °/min
Orbital period
93.38 mins
BSTAR
0.00081528
Loading maneuver chart data...
Computing Atmospheric mass density...
Loading historical data...
Loading historical data...
Loading historical data...
Loading historical data...
Loading historical data...
Loading historical data...
Loading historical data...

Documentation

Showing up to 5 results
|